GW1476 Weather Reports


time (UTC)temp
C
wind
direction
speed
KPH
gust
KPH
rain 1hr
cm
rain 24hr
cm
rain mn
cm
humidity
%
barometer
mb
20260504225714 26 203 3.2 4.8 0.00 0.00 0.00 51 1011.5
20260504225147 26 338 1.6 9.7 0.00 0.00 0.00 50 1011.5
20260504224511 26 180 4.8 6.4 0.00 0.00 0.00 50 1011.8
20260504223935 26 203 4.8 6.4 0.00 0.00 0.00 49 1011.5
20260504223316 27 270 4.8 4.8 0.00 0.00 0.00 48 1011.8
20260504222753 27 180 3.2 11.3 0.00 0.00 0.00 49 1011.5
20260504222112 27 68 1.6 8.0 0.00 0.00 0.00 50 1011.5
20260504221522 28 225 8.0 9.7 0.00 0.00 0.00 47 1011.8
20260504220927 28 293 1.6 6.4 0.00 0.00 0.00 46 1011.5
20260504220316 28 23 8.0 8.0 0.00 0.00 0.00 47 1011.5
20260504215123 27 0 9.7 9.7 0.00 0.00 0.00 48 1011.8
20260504214552 27 270 3.2 6.4 0.00 0.00 0.00 49 1011.8
20260504213950 27 113 6.4 6.4 0.00 0.00 0.00 49 1011.8
20260504211527 27 0 8.0 16.1 0.00 0.00 0.00 48 1012.1
20260504210950 26 180 6.4 11.3 0.00 0.00 0.00 51 1011.8
20260504210330 27 45 9.7 17.7 0.00 0.00 0.00 49 1011.8
20260504205734 26 68 3.2 6.4 0.00 0.00 0.00 50 1011.8
20260504205140 26 248 4.8 17.7 0.00 0.00 0.00 52 1012.1
20260504204542 26 203 8.0 12.9 0.00 0.00 0.00 52 1012.1
20260504203931 26 203 4.8 8.0 0.00 0.00 0.00 53 1012.1
20260504202734 26 248 3.2 4.8 0.00 0.00 0.00 53 1012.1
20260504202114 26 0 3.2 6.4 0.00 0.00 0.00 54 1012.5
20260504201541 25 180 3.2 4.8 0.00 0.00 0.00 54 1012.5
20260504200320 25 203 4.8 8.0 0.00 0.00 0.00 56 1012.8
20260504195752 25 180 4.8 4.8 0.00 0.00 0.00 58 1012.8
20260504195124 25 113 1.6 4.8 0.00 0.00 0.00 60 1013.2
20260504194552 24 23 6.4 6.4 0.00 0.00 0.00 62 1013.2
20260504193936 23 23 3.2 3.2 0.00 0.00 0.00 63 1013.2
20260504193337 22 225 1.6 3.2 0.00 0.00 0.00 68 1013.5
20260504192722 22 23 3.2 3.2 0.00 0.00 0.00 70 1013.8
20260504192139 21 225 0.0 4.8 0.00 0.00 0.00 70 1013.8
20260504191533 20 203 4.8 4.8 0.00 0.00 0.00 77 1014.2
20260504190949 20 0 6.4 6.4 0.00 0.00 0.00 71 1014.2
20260504185733 21 0 6.4 9.7 0.00 0.00 0.00 60 1014.5
20260504184535 22 0 4.8 11.3 0.00 0.00 0.00 61 1013.8
20260504183943 23 270 4.8 11.3 0.00 0.00 0.00 56 1013.5
20260504183329 23 225 4.8 6.4 0.00 0.00 0.00 57 1013.8
20260504182741 23 248 3.2 4.8 0.00 0.00 0.00 57 1013.5
20260504182142 23 135 3.2 9.7 0.00 0.00 0.00 55 1013.5
20260504181512 24 270 6.4 9.7 0.00 0.00 0.00 55 1013.5
20260504180923 25 248 6.4 9.7 0.00 0.00 0.00 55 1013.5
20260504180320 24 225 1.6 3.2 0.00 0.00 0.00 54 1013.5
20260504175748 24 225 6.4 6.4 0.00 0.00 0.00 55 1013.5
20260504174534 23 315 14.5 14.5 0.00 0.00 0.00 54 1013.8
20260504173931 23 113 4.8 9.7 0.00 0.00 0.00 55 1013.8
20260504172713 23 338 6.4 6.4 0.00 0.00 0.00 55 1014.2
20260504172134 23 225 9.7 9.7 0.00 0.00 0.00 56 1014.2
20260504171554 22 270 6.4 12.9 0.00 0.00 0.00 58 1014.2
20260504170919 22 158 6.4 11.3 0.00 0.00 0.00 60 1014.5
20260504170335 22 248 3.2 8.0 0.00 0.00 0.00 63 1014.5
20260504160347 18 0 4.8 4.8 0.00 0.00 0.00 71 1016.5
20260504141236 16 293 0.0 4.8 0.00 0.00 0.00 71 1016.9
20260504140653 16 135 0.0 4.8 0.00 0.00 0.00 69 1016.9
20260504130633 11 248 0.0 4.8 0.00 0.00 0.00 83 1016.9
20260504110627 5 225 0.0 0.0 0.00 0.00 0.00 99 1016.2
20260504081814 6 203 0.0 0.0 0.00 0.00 0.00 99 1017.2
20260504081216 5 203 0.0 0.0 0.00 0.00 0.00 99 1017.2
20260504080626 5 180 0.0 0.0 0.00 0.00 0.00 99 1017.2
20260504045417 8 270 0.0 0.0 0.00 0.00 0.00 90 1018.6
20260504044831 8 225 0.0 0.0 0.00 0.00 0.00 88 1018.2
20260504044221 8 248 0.0 0.0 0.00 0.00 0.00 89 1018.2
20260504043642 8 248 0.0 0.0 0.00 0.00 0.00 89 1018.2
20260504043048 8 270 0.0 0.0 0.00 0.00 0.00 87 1018.6
20260504042431 8 270 0.0 0.0 0.00 0.00 0.00 86 1018.2
20260504041228 8 293 0.0 0.0 0.00 0.00 0.00 84 1018.2
20260504040644 8 270 0.0 0.0 0.00 0.00 0.00 85 1018.2
20260504040029 9 338 0.0 0.0 0.00 0.00 0.00 84 1018.2
20260504035428 9 0 0.0 0.0 0.00 0.00 0.00 82 1018.2
20260504034214 9 293 0.0 0.0 0.00 0.00 0.00 80 1018.2
20260504033612 9 270 0.0 0.0 0.00 0.00 0.00 81 1018.2
20260504033036 9 270 0.0 0.0 0.00 0.00 0.00 82 1018.2
20260504031244 9 225 0.0 0.0 0.00 0.00 0.00 79 1018.2
20260504030018 9 293 0.0 0.0 0.00 0.00 0.00 79 1018.2
20260504025413 9 248 0.0 0.0 0.00 0.00 0.00 80 1018.2
20260504024824 9 270 0.0 0.0 0.00 0.00 0.00 80 1018.2
20260504024220 9 203 0.0 0.0 0.00 0.00 0.00 78 1017.9
20260504023633 9 225 0.0 0.0 0.00 0.00 0.00 78 1017.9
20260504023027 9 203 0.0 0.0 0.00 0.00 0.00 80 1018.2
20260504022437 9 203 0.0 0.0 0.00 0.00 0.00 78 1017.6
20260504021834 9 203 0.0 0.0 0.00 0.00 0.00 78 1017.6
20260504020620 9 225 0.0 0.0 0.00 0.00 0.00 78 1017.9
20260504020020 9 180 0.0 0.0 0.00 0.00 0.00 78 1017.9
20260504015443 9 203 0.0 0.0 0.00 0.00 0.00 78 1017.9
20260504014826 9 248 0.0 0.0 0.00 0.00 0.00 77 1017.9
20260504014244 9 225 0.0 0.0 0.00 0.00 0.00 77 1017.9
20260504013650 9 203 0.0 0.0 0.00 0.00 0.00 77 1017.9
20260504012412 10 225 0.0 0.0 0.00 0.00 0.00 74 1017.6
20260504011837 10 180 0.0 0.0 0.00 0.00 0.00 72 1017.6
20260504011214 10 203 0.0 0.0 0.00 0.00 0.00 71 1017.6
20260504010635 10 203 0.0 0.0 0.00 0.00 0.00 69 1017.9
20260504010049 11 203 0.0 0.0 0.00 0.00 0.00 68 1017.6
20260504005438 11 225 1.6 3.2 0.00 0.00 0.00 68 1017.6
20260504004247 11 203 0.0 0.0 0.00 0.00 0.00 64 1017.6
20260504003614 11 203 0.0 0.0 0.00 0.00 0.00 64 1017.6
20260504003040 12 248 0.0 0.0 0.00 0.00 0.00 61 1017.6
20260504002436 13 225 0.0 0.0 0.00 0.00 0.00 58 1017.2
20260504001818 13 203 0.0 0.0 0.00 0.00 0.00 58 1017.2
20260504001219 13 203 0.0 0.0 0.00 0.00 0.00 57 1017.2
20260504000654 14 203 0.0 0.0 0.00 0.00 0.00 54 1017.2
20260504000042 15 203 0.0 0.0 0.00 0.00 0.00 51 1017.2
20260503235412 15 203 0.0 0.0 0.00 0.00 0.00 52 1017.6
20260503234815 16 225 0.0 0.0 0.00 0.00 0.00 46 1017.6
20260503234236 17 45 0.0 0.0 0.00 0.00 0.00 45 1017.2
20260503233627 18 45 0.0 3.2 0.00 0.00 0.00 39 1017.6
20260503233035 18 45 0.0 0.0 0.00 0.00 0.00 39 1017.6
20260503232447 20 45 0.0 4.8 0.00 0.00 0.00 37 1017.6
20260503231819 18 45 3.2 4.8 0.00 0.00 0.00 37 1017.6
20260503231252 20 315 0.0 3.2 0.00 0.00 0.00 37 1017.6
20260503230636 20 270 1.6 11.3 0.00 0.00 0.00 36 1017.6